Antonio Macea, Cuba

9:53 PM CDT on August 16, 2018 (GMT -0400)
Antonio Macea

Weather History for 78264 - August, 2018

Change the Weather History Date:

Friday, August 10, 2018

  Actual Average Record
Temperature  
Mean Temperature 82 °F -  
Max Temperature 89 °F 86 °F - ()
Min Temperature 74 °F 74 °F - ()
Cooling Degree Days 16    
Growing Degree Days 32 (Base 50)    
Moisture  
Dew Point 68 °F    
Average Humidity 62    
Maximum Humidity 74    
Minimum Humidity 44    
Precipitation  
Precipitation 0.00 in - - ()
Sea Level Pressure  
Sea Level Pressure 30.03 in    
Wind  
Wind Speed 6 mph ()    
Max Wind Speed 14 mph    
Max Gust Speed -    
Visibility 5.6 miles    
Events Thunderstorm    
T = Trace of Precipitation, MM = Missing Value Source: Averaged Metar Reports

Daily Weather History Graph

Daily Weather History Graph

Search for Another Location

Airport or City:

Astronomy

Aug. 10, 2018 Rise Set
Actual Time 6:41 AM CDT 7:35 PM CDT
Civil Twilight 6:18 AM CDT 7:58 PM CDT
Nautical Twilight 5:51 AM CDT 8:25 PM CDT
Astronomical Twilight 5:23 AM CDT 8:53 PM CDT
Moon 5:42 AM CDT (8/10) 7:09 PM CDT (8/10)
Length of Visible Light 13h 39m
Length of Day
12h 53m
Waning Crescent, 1% of the Moon is Illuminated
Aug 10
Waning Crescent
Aug 11
New
Aug 18
First Quarter
Aug 26
Full
Sep 2
Last Quarter

Hourly Weather History & Observations

Time (CDT) Temp. Heat Index Dew Point Humidity Pressure Visibility Wind Dir Wind Speed Gust Speed Precip Events Conditions
12:50 AM 78.8 °F - 68.0 °F 69% 30.06 in 5.6 mi NE 5.8 mph - N/A   Partly Cloudy
1:50 AM 78.8 °F - 69.8 °F 74% 30.04 in 5.6 mi NNW 4.6 mph - N/A   Partly Cloudy
2:00 AM 78 °F - 69 °F 67% 30.05 in 6 mi NNW 4.5 mph - -   Haze
2:50 AM 78.8 °F - 68.0 °F 69% 30.01 in 5.6 mi NNW 6.9 mph - N/A   Partly Cloudy
3:50 AM 78.8 °F - 68.0 °F 69% 30.01 in 5.6 mi NNE 8.1 mph - N/A   Partly Cloudy
4:51 AM 77.0 °F - 68.0 °F 74% 30.01 in 5.6 mi NNE 9.2 mph - N/A   Partly Cloudy
5:50 AM 77.0 °F - 68.0 °F 74% 30.01 in 5.6 mi NNE 5.8 mph - N/A   Partly Cloudy
6:50 AM 77.0 °F - 68.0 °F 74% 30.01 in 5.6 mi North 5.8 mph - N/A   Partly Cloudy
7:50 AM 78.8 °F - 69.8 °F 74% 30.04 in 5.6 mi North 5.8 mph - N/A   Partly Cloudy
8:00 AM 79 °F - 69 °F 64% 30.04 in 6 mi North 4.5 mph - -   Haze
8:51 AM 84.2 °F 88.4 °F 69.8 °F 62% 30.04 in 5.6 mi North 4.6 mph - N/A   Partly Cloudy
9:50 AM 87.8 °F 90.4 °F 66.2 °F 49% 30.04 in 5.6 mi Variable 4.6 mph - N/A   Partly Cloudy
10:50 AM 86.0 °F 88.2 °F 66.2 °F 51% 30.06 in 5.6 mi South 5.8 mph - N/A   Partly Cloudy
11:50 AM 87.8 °F 90.4 °F 66.2 °F 49% 30.04 in 5.6 mi South 6.9 mph - N/A   Scattered Clouds
12:50 PM 87.8 °F 90.4 °F 66.2 °F 49% 30.04 in 5.6 mi South 10.4 mph - N/A   Scattered Clouds
1:51 PM 87.8 °F 91.4 °F 68.0 °F 52% 30.01 in 5.6 mi SSE 11.5 mph - N/A   Scattered Clouds
2:00 PM 88 °F - 69 °F 44% 30.03 in 6 mi SSE 11.2 mph - -   Haze
2:52 PM 89.6 °F 96.2 °F 71.6 °F 55% 30.01 in 5.6 mi SE 13.8 mph - N/A   Scattered Clouds
3:53 PM 86.0 °F 91.8 °F 71.6 °F 62% 29.98 in 5.6 mi SSE 11.5 mph - N/A Thunderstorm Thunderstorm
4:52 PM 84.2 °F 89.6 °F 71.6 °F 66% 29.98 in 5.0 mi SSE 9.2 mph - N/A Thunderstorm Thunderstorm
5:52 PM 84.2 °F 89.6 °F 71.6 °F 66% 29.98 in 5.6 mi SSE 9.2 mph - N/A   Mostly Cloudy
6:52 PM 84.2 °F 89.6 °F 71.6 °F 66% 29.98 in 5.6 mi SSE 8.1 mph - N/A   Mostly Cloudy
7:52 PM 80.6 °F 83.2 °F 68.0 °F 65% 30.01 in 5.6 mi East 5.8 mph - N/A   Scattered Clouds
8:00 PM 81 °F - 69 °F 58% 30.01 in 6 mi East 6.7 mph - -   Haze
8:51 PM 78.8 °F - 66.2 °F 65% 30.01 in 5.6 mi East 4.6 mph - N/A   Scattered Clouds
9:50 PM 78.8 °F - 66.2 °F 65% 30.04 in 5.6 mi East 4.6 mph - N/A   Scattered Clouds
10:54 PM 80.6 °F 82.7 °F 66.2 °F 61% 30.06 in 5.0 mi ESE 9.2 mph - N/A Thunderstorm Thunderstorm
11:00 PM 80 °F - 66 °F 54% 30.07 in 5 mi ESE 8.9 mph - - Thunderstorm Thunderstorm
11:51 PM 78.8 °F - 64.4 °F 61% 30.06 in 5.0 mi East 5.8 mph - N/A   Scattered Clouds